Observations

BIA Manual Entry


Date Temp Humidity Rainfall Dew Point Wind Direction Wind Speed Wind Pressure Condition Visibility
2025-04-10 12:57:54 31 71 25 300 15.2 1010 Distant showers 15 KM
2025-04-10 11:59:19 30 72 25 320 13.3 1010 Partly Cloudy (Day) 20 KM
2025-04-10 10:58:03 30 75 24 240 7.6 1011 Partly Cloudy (Day) 20 KM
2025-04-10 10:00:23 30 71 24 240 7.6 1011 Partly Cloudy (Day) 20 KM
2025-04-10 09:01:29 28 79 24 180 5.7 1011 Partly Cloudy (Day) 20 KM
2025-04-10 08:00:16 27 85 24 220 1.9 1010 Partly Cloudy (Day) 20 km
2025-04-10 07:00:57 25 92 24 200 7.6 1010 Partly Cloudy (Day) 10 km
2025-04-10 05:56:08 25 93 24 190 5.7 1009 Partly Cloudy (Day) 10 km
2025-04-10 04:58:14 25 94 24 230 3.8 1009 Partly Cloudy (Night) 10 km
2025-04-10 03:58:35 25 93 24 230 5.7 1009 Partly Cloudy (Day) 10 km
2025-04-10 03:01:40 26 93 25 160 5.7 1009 Partly Cloudy (Day) 10 km
2025-04-10 02:02:09 26 92 0.00 25 160 5.7 1010 Night Shower 10KM
2025-04-10 01:01:01 26 90 0.00 25 190 7.6 1010 Night Shower 09KM
2025-04-10 00:03:28 27 90 0.00 25 200 3.8 1011 Night Shower 09KM
2025-04-09 23:01:40 27 87 0.00 25 120 3.8 1012 Lightning 10KM
2025-04-09 22:02:11 27 87 0.00 25 100 3.8 1011 Lightning 10KM
2025-04-09 21:00:13 28 83 0.0 25 250 1.9 1011 Lightning 10 KM
2025-04-09 20:00:59 28 80 0.0 24 270 3.8 1010 Lightning 10 KM
2025-04-09 19:00:42 28 79 0.0 24 310 9.5 1009 Lightning 10 KM
2025-04-09 18:00:13 29 77 0.0 24 310 13.3 1009 Partly Cloudy (Day) 10 KM
2025-04-09 17:02:00 30 69 0.0 23 310 15.2 1008 Partly Cloudy (Day) 20 KM
2025-04-09 16:00:45 31 68 0.0 24 300 24.7 1007 Partly Cloudy (Day) 20KM
2025-04-09 15:00:07 31 68 0.0 24 290 22.8 1008 Partly Cloudy (Day) 20 KM
2025-04-09 14:00:30 32 66 0.0 24 310 20.9 1009 Partly Cloudy (Day) 20 KM
2025-04-09 12:58:50 32 66 24 300 9.5 1011 Partly Cloudy (Day) 20 KM